• In Russia
  • List of Countries
  • For 7 days
  • Water Temperature
  • Weather Map
  • Weather Widgets
  • user-avatar
    Login

    Hourly Weather Gaborone

    Today, 12 December, Thursday

    Time Temperature Precipitation Wind Pressure Humidity
    00:00 +24°C° 0 mm 1 mps 675 mmHg 50%
    01:00 +24°C° 0 mm 1 mps 675 mmHg 51%
    02:00 +22°C° 0 mm 0 mps 675 mmHg 52%
    03:00 +23°C° 0 mm 1 mps 674 mmHg 55%
    04:00 +22°C° 0 mm 1 mps 674 mmHg 58%
    05:00 +22°C° 0 mm 1 mps 674 mmHg 61%
    06:00 +23°C° 0 mm 1 mps 675 mmHg 57%
    07:00 +25°C° 0 mm 1 mps 676 mmHg 54%
    08:00 +26°C° 0 mm 1 mps 677 mmHg 50%
    09:00 +28°C° 0 mm 1 mps 677 mmHg 45%
    10:00 +30°C° 0 mm 1 mps 677 mmHg 40%
    11:00 +32°C° 0 mm 1 mps 677 mmHg 34%
    12:00 +33°C° 0 mm 1 mps 677 mmHg 31%
    13:00 +34°C° 0 mm 1 mps 677 mmHg 27%
    14:00 +35°C° 0 mm 1 mps 676 mmHg 24%
    15:00 +34°C° 0 mm 1 mps 676 mmHg 24%
    16:00 +34°C° 0 mm 1 mps 676 mmHg 25%
    17:00 +33°C° 0 mm 1 mps 675 mmHg 26%
    18:00 +31°C° 0 mm 1 mps 675 mmHg 29%
    19:00 +30°C° 0 mm 1 mps 675 mmHg 32%
    20:00 +28°C° 0 mm 1 mps 675 mmHg 35%
    21:00 +28°C° 0 mm 1 mps 675 mmHg 36%
    22:00 +27°C° 0 mm 1 mps 676 mmHg 37%
    23:00 +26°C° 0 mm 1 mps 676 mmHg 39%

    Tomorrow, 13 December, Friday

    Time Temperature Precipitation Wind Pressure Humidity
    00:00 +26°C° 0 mm 1 mps 676 mmHg 41%
    01:00 +25°C° 0 mm 1 mps 675 mmHg 44%
    02:00 +24°C° 0 mm 1 mps 675 mmHg 47%
    03:00 +24°C° 0 mm 2 mps 675 mmHg 57%
    04:00 +22°C° 0 mm 3 mps 676 mmHg 67%
    05:00 +21°C° 0 mm 3 mps 676 mmHg 78%
    06:00 +22°C° 0 mm 4 mps 677 mmHg 76%
    07:00 +22°C° 0 mm 5 mps 677 mmHg 74%
    08:00 +23°C° 0 mm 6 mps 678 mmHg 72%
    09:00 +24°C° 0 mm 6 mps 678 mmHg 67%
    10:00 +26°C° 0 mm 5 mps 678 mmHg 63%
    11:00 +28°C° 0 mm 4 mps 678 mmHg 58%
    12:00 +30°C° 0 mm 4 mps 678 mmHg 51%
    13:00 +32°C° 0 mm 4 mps 678 mmHg 43%
    14:00 +34°C° 0 mm 4 mps 677 mmHg 36%
    15:00 +34°C° 0 mm 3 mps 677 mmHg 34%
    16:00 +35°C° 0 mm 3 mps 677 mmHg 31%
    17:00 +35°C° 0 mm 2 mps 676 mmHg 29%
    18:00 +33°C° 0 mm 3 mps 676 mmHg 34%
    19:00 +30°C° 0 mm 3 mps 676 mmHg 39%
    20:00 +28°C° 0 mm 3 mps 676 mmHg 44%
    21:00 +28°C° 0 mm 4 mps 676 mmHg 47%
    22:00 +27°C° 0 mm 4 mps 676 mmHg 49%
    23:00 +26°C° 0 mm 5 mps 676 mmHg 51%

    Day after tomorrow, 14 December, Saturday

    Time Temperature Precipitation Wind Pressure Humidity
    00:00 +26°C° 0 mm 4 mps 676 mmHg 54%
    01:00 +25°C° 0 mm 4 mps 676 mmHg 57%
    02:00 +24°C° 0 mm 3 mps 676 mmHg 60%
    03:00 +22°C° 0 mm 4 mps 676 mmHg 64%
    04:00 +22°C° 0 mm 4 mps 676 mmHg 67%
    05:00 +21°C° 0 mm 4 mps 676 mmHg 71%
    06:00 +22°C° 0 mm 5 mps 677 mmHg 69%
    07:00 +23°C° 0 mm 5 mps 677 mmHg 68%
    08:00 +23°C° 0 mm 5 mps 678 mmHg 66%
    09:00 +27°C° 0 mm 5 mps 678 mmHg 58%
    10:00 +29°C° 0 mm 5 mps 678 mmHg 50%
    11:00 +32°C° 0 mm 4 mps 678 mmHg 42%
    12:00 +33°C° 0 mm 4 mps 678 mmHg 37%
    13:00 +35°C° 0 mm 3 mps 678 mmHg 32%
    14:00 +36°C° 0 mm 3 mps 677 mmHg 28%
    15:00 +36°C° 0 mm 2 mps 677 mmHg 27%
    16:00 +36°C° 0 mm 2 mps 676 mmHg 26%
    17:00 +36°C° 0 mm 1 mps 676 mmHg 25%
    18:00 +34°C° 0 mm 1 mps 675 mmHg 28%
    19:00 +32°C° 0 mm 1 mps 675 mmHg 31%
    20:00 +30°C° 0 mm 1 mps 675 mmHg 34%
    21:00 +30°C° 0 mm 2 mps 675 mmHg 35%
    22:00 +29°C° 0 mm 2 mps 676 mmHg 36%
    23:00 +28°C° 0 mm 3 mps 676 mmHg 37%

    15 December, Sunday

    Time Temperature Precipitation Wind Pressure Humidity
    00:00 +28°C° 0 mm 3 mps 676 mmHg 39%
    01:00 +27°C° 0 mm 3 mps 675 mmHg 41%
    02:00 +27°C° 0 mm 2 mps 675 mmHg 43%
    03:00 +27°C° 0 mm 2 mps 676 mmHg 43%
    04:00 +27°C° 0 mm 2 mps 676 mmHg 42%
    05:00 +27°C° 0 mm 1 mps 676 mmHg 41%
    06:00 +28°C° 0 mm 2 mps 677 mmHg 39%
    07:00 +30°C° 0 mm 2 mps 677 mmHg 37%
    08:00 +31°C° 0 mm 2 mps 678 mmHg 34%
    09:00 +34°C° 0 mm 3 mps 678 mmHg 30%
    10:00 +36°C° 0 mm 3 mps 678 mmHg 26%
    11:00 +38°C° 0 mm 3 mps 678 mmHg 22%
    12:00 +38°C° 0 mm 3 mps 678 mmHg 21%
    13:00 +38°C° 0 mm 3 mps 677 mmHg 20%
    14:00 +38°C° 0 mm 3 mps 676 mmHg 19%
    15:00 +37°C° 0 mm 3 mps 676 mmHg 22%
    16:00 +36°C° 0 mm 3 mps 675 mmHg 24%
    17:00 +35°C° 0 mm 3 mps 675 mmHg 26%
    18:00 +34°C° 0 mm 2 mps 675 mmHg 28%
    19:00 +32°C° 0 mm 2 mps 675 mmHg 30%
    20:00 +31°C° 0 mm 1 mps 675 mmHg 32%
    21:00 +30°C° 0 mm 1 mps 675 mmHg 33%
    22:00 +29°C° 0 mm 1 mps 676 mmHg 34%
    23:00 +28°C° 0 mm 1 mps 676 mmHg 35%

    16 December, Monday

    Time Temperature Precipitation Wind Pressure Humidity
    00:00 +28°C° 0 mm 1 mps 676 mmHg 35%
    01:00 +27°C° 0 mm 1 mps 675 mmHg 36%
    02:00 +26°C° 0 mm 2 mps 675 mmHg 36%
    03:00 +26°C° 0 mm 2 mps 675 mmHg 33%
    04:00 +25°C° 0 mm 2 mps 675 mmHg 31%
    05:00 +25°C° 0 mm 2 mps 675 mmHg 28%
    06:00 +26°C° 0 mm 2 mps 676 mmHg 27%
    07:00 +28°C° 0 mm 3 mps 677 mmHg 26%
    08:00 +29°C° 0 mm 3 mps 677 mmHg 25%
    09:00 +32°C° 0 mm 4 mps 678 mmHg 29%
    10:00 +33°C° 0 mm 5 mps 678 mmHg 33%
    11:00 +35°C° 0 mm 6 mps 678 mmHg 36%
    12:00 +36°C° 0 mm 5 mps 678 mmHg 34%
    13:00 +37°C° 0 mm 5 mps 677 mmHg 31%
    14:00 +39°C° 0 mm 5 mps 677 mmHg 28%
    15:00 +34°C° 2.3 mm 5 mps 676 mmHg 40%
    16:00 +29°C° 2.3 mm 4 mps 675 mmHg 51%
    17:00 +26°C° 2.3 mm 4 mps 674 mmHg 63%
    18:00 +25°C° 2 mm 4 mps 675 mmHg 63%
    19:00 +25°C° 2 mm 5 mps 676 mmHg 63%
    20:00 +23°C° 2 mm 5 mps 677 mmHg 64%
    21:00 +22°C° 0.1 mm 5 mps 677 mmHg 71%
    22:00 +22°C° 0.1 mm 4 mps 678 mmHg 77%
    23:00 +21°C° 0.1 mm 4 mps 678 mmHg 84%

    17 December, Tuesday

    Time Temperature Precipitation Wind Pressure Humidity
    00:00 +21°C° 0 mm 4 mps 678 mmHg 82%
    01:00 +22°C° 0 mm 4 mps 677 mmHg 81%
    02:00 +22°C° 0 mm 4 mps 676 mmHg 79%
    03:00 +21°C° 0 mm 4 mps 676 mmHg 79%
    04:00 +21°C° 0 mm 4 mps 677 mmHg 80%
    05:00 +21°C° 0 mm 4 mps 677 mmHg 81%
    06:00 +21°C° 0 mm 5 mps 677 mmHg 78%
    07:00 +22°C° 0 mm 5 mps 678 mmHg 75%
    08:00 +22°C° 0 mm 5 mps 678 mmHg 72%
    09:00 +23°C° 0 mm 5 mps 678 mmHg 68%
    10:00 +25°C° 0 mm 4 mps 678 mmHg 64%
    11:00 +26°C° 0 mm 3 mps 679 mmHg 60%
    12:00 +28°C° 0 mm 3 mps 678 mmHg 54%
    13:00 +29°C° 0 mm 3 mps 678 mmHg 47%
    14:00 +31°C° 0 mm 2 mps 678 mmHg 41%
    15:00 +31°C° 0 mm 3 mps 677 mmHg 40%
    16:00 +31°C° 0 mm 3 mps 677 mmHg 39%
    17:00 +31°C° 0 mm 3 mps 676 mmHg 39%
    18:00 +30°C° 0 mm 2 mps 675 mmHg 42%
    19:00 +28°C° 0 mm 2 mps 675 mmHg 46%
    20:00 +27°C° 0 mm 2 mps 675 mmHg 49%
    21:00 +26°C° 0 mm 2 mps 675 mmHg 52%
    22:00 +26°C° 0 mm 1 mps 675 mmHg 55%
    23:00 +25°C° 0 mm 1 mps 676 mmHg 58%
    Show more